User: anonymous
Location: Albany
(35.0000°S, 118.0000°E)
Time: 01:48:54
(UTC-04:00)
Language:

CZ-4B R/B - Orbit

View from above orbital plane
View from above orbital plane
View from above satellite
View from above satellite

Ground track
Ground track

The orbit data is extracted from the following two-line orbital elements,

1 33410U 08053C   14261.06698197  .00004352  00000-0  35025-3 0  9191
2 33410 097.5949 235.3677 0128112 315.8184 043.2859 14.94223658320712
Epoch (UTC): 18 September 2014 01:36:27
Eccentricity: 0.0128112
inclination: 97.5949°
perigee height: 495 km
apogee height: 674 km
right ascension of ascending node: 235.3677°
argument of perigee: 315.8184°
revolutions per day: 14.94223658
mean anomaly at epoch: 43.2859°
orbit number at epoch: 32071

The dashed part of the orbit path shows where the satellite is in the earth's shadow,  

DLR